Time,TemperatureF,DewpointF,PressureIn,WindDirection,WindDirectionDegrees,WindSpeedMPH,WindSpeedGustMPH,Humidity,HourlyPrecipIn,Conditions,Clouds,dailyrainin,SoftwareType,DateUTC
2013-03-21 00:09:00,36.3,31.3,29.81,WSW,253,0.0,6.0,82,0.00,,,0.00,meteobridge,2013-03-21 07:09:00,
2013-03-21 00:24:00,35.6,30.9,29.81,SSE,155,0.0,6.9,83,0.00,,,0.00,meteobridge,2013-03-21 07:24:00,
2013-03-21 00:40:00,35.4,30.7,29.82,SW,222,0.0,4.0,83,0.00,,,0.00,meteobridge,2013-03-21 07:40:00,
2013-03-21 00:55:00,35.2,30.6,29.82,East,99,2.9,4.9,83,0.00,,,0.00,meteobridge,2013-03-21 07:55:00,
2013-03-21 01:10:00,35.1,30.2,29.82,WNW,293,0.9,6.9,82,0.00,,,0.00,meteobridge,2013-03-21 08:10:00,
2013-03-21 01:25:00,35.1,27.9,29.82,SE,133,0.0,2.9,75,0.00,,,0.00,meteobridge,2013-03-21 08:25:00,
2013-03-21 01:40:00,34.7,26.6,29.83,South,185,0.9,6.0,72,0.00,,,0.00,meteobridge,2013-03-21 08:40:00,
2013-03-21 01:55:00,34.3,25.5,29.83,East,91,4.0,4.9,70,0.00,,,0.00,meteobridge,2013-03-21 08:55:00,
2013-03-21 02:10:00,34.2,25.7,29.84,NW,309,0.0,6.9,71,0.00,,,0.00,meteobridge,2013-03-21 09:10:00,
2013-03-21 02:25:00,33.8,26.8,29.84,WNW,301,0.9,6.9,75,0.00,,,0.00,meteobridge,2013-03-21 09:25:00,
2013-03-21 02:40:00,33.4,27.3,29.84,SSE,159,0.0,4.9,78,0.00,,,0.00,meteobridge,2013-03-21 09:40:00,
2013-03-21 02:55:00,32.9,27.1,29.84,West,275,0.0,2.0,79,0.00,,,0.00,meteobridge,2013-03-21 09:55:00,
2013-03-21 03:10:00,32.5,26.8,29.84,WNW,283,0.0,6.9,79,0.00,,,0.00,meteobridge,2013-03-21 10:10:00,
2013-03-21 03:25:00,32.2,26.8,29.85,SSE,159,0.9,2.9,80,0.00,,,0.00,meteobridge,2013-03-21 10:25:00,
2013-03-21 03:40:00,31.8,26.4,29.85,SW,221,0.0,2.9,80,0.00,,,0.00,meteobridge,2013-03-21 10:40:00,
2013-03-21 03:55:00,31.5,26.1,29.87,SSE,158,2.9,4.9,80,0.00,,,0.00,meteobridge,2013-03-21 10:55:00,
2013-03-21 04:10:00,31.3,25.9,29.87,SSW,207,2.0,2.9,80,0.00,,,0.00,meteobridge,2013-03-21 11:10:00,
2013-03-21 04:25:00,31.1,25.7,29.88,SW,222,0.9,2.9,80,0.00,,,0.00,meteobridge,2013-03-21 11:25:00,
2013-03-21 04:40:00,30.7,25.3,29.88,SSE,167,0.9,4.9,80,0.00,,,0.00,meteobridge,2013-03-21 11:40:00,
2013-03-21 04:55:00,30.6,25.2,29.89,ESE,122,0.0,2.9,80,0.00,,,0.00,meteobridge,2013-03-21 11:55:00,
2013-03-21 05:10:00,30.6,24.4,29.91,SE,139,0.0,2.0,78,0.00,,,0.00,meteobridge,2013-03-21 12:10:00,
2013-03-21 05:25:00,30.6,24.3,29.92,WSW,250,0.0,2.0,77,0.00,,,0.00,meteobridge,2013-03-21 12:25:00,
2013-03-21 05:40:00,30.4,24.3,29.93,South,176,2.0,2.9,78,0.00,,,0.00,meteobridge,2013-03-21 12:40:00,
2013-03-21 05:55:00,30.6,24.3,29.93,SW,226,0.0,4.9,77,0.00,,,0.00,meteobridge,2013-03-21 12:55:00,
2013-03-21 06:10:00,30.7,24.4,29.94,SSE,164,2.0,2.9,77,0.00,,,0.00,meteobridge,2013-03-21 13:10:00,
2013-03-21 06:25:00,30.7,24.4,29.94,SE,143,0.0,2.9,77,0.00,,,0.00,meteobridge,2013-03-21 13:25:00,
2013-03-21 06:40:00,30.9,24.6,29.95,South,171,0.0,4.0,77,0.00,,,0.00,meteobridge,2013-03-21 13:40:00,
2013-03-21 06:55:00,30.9,24.8,29.95,SSE,158,0.9,2.9,78,0.00,,,0.00,meteobridge,2013-03-21 13:55:00,
2013-03-21 07:10:00,30.9,24.8,29.96,WNW,303,0.0,0.9,78,0.00,,,0.00,meteobridge,2013-03-21 14:10:00,
2013-03-21 07:25:00,30.9,24.6,29.96,South,170,2.9,6.0,77,0.00,,,0.00,meteobridge,2013-03-21 14:25:00,
2013-03-21 07:40:00,31.3,24.6,29.97,NW,309,0.9,4.9,76,0.00,,,0.00,meteobridge,2013-03-21 14:40:00,
2013-03-21 07:55:00,31.3,24.6,29.98,ESE,120,0.0,0.9,76,0.00,,,0.00,meteobridge,2013-03-21 14:55:00,
2013-03-21 08:10:00,31.5,24.8,29.98,SSE,153,0.0,2.0,76,0.00,,,0.00,meteobridge,2013-03-21 15:10:00,
2013-03-21 08:25:00,31.3,24.6,29.98,SSW,210,0.0,2.9,76,0.00,,,0.00,meteobridge,2013-03-21 15:25:00,
2013-03-21 08:41:00,31.8,24.4,29.98,WNW,302,0.9,6.0,74,0.00,,,0.00,meteobridge,2013-03-21 15:41:00,
2013-03-21 08:55:00,32.2,24.8,29.98,SE,131,0.0,4.0,74,0.00,,,0.00,meteobridge,2013-03-21 15:55:00,
2013-03-21 09:11:00,33.1,25.0,29.99,West,274,0.9,6.0,72,0.00,,,0.00,meteobridge,2013-03-21 16:11:00,
2013-03-21 09:26:00,33.4,25.0,29.99,WSW,237,2.0,2.9,71,0.00,,,0.00,meteobridge,2013-03-21 16:26:00,
2013-03-21 09:41:00,33.4,25.7,30.00,SE,127,0.0,2.0,73,0.00,,,0.00,meteobridge,2013-03-21 16:41:00,
2013-03-21 09:56:00,34.3,25.9,30.01,SE,136,2.0,6.0,71,0.00,,,0.00,meteobridge,2013-03-21 16:56:00,
2013-03-21 10:11:00,35.4,26.2,30.01,SSW,198,0.9,2.9,69,0.00,,,0.00,meteobridge,2013-03-21 17:11:00,
2013-03-21 10:26:00,36.3,26.4,30.01,SSE,148,0.9,4.9,67,0.00,,,0.00,meteobridge,2013-03-21 17:26:00,
2013-03-21 10:41:00,37.0,26.8,30.01,NW,310,0.9,2.0,66,0.00,,,0.00,meteobridge,2013-03-21 17:41:00,
2013-03-21 10:56:00,37.8,27.1,30.01,SSW,193,4.0,6.0,65,0.00,,,0.00,meteobridge,2013-03-21 17:56:00,
2013-03-21 11:11:00,38.8,26.6,30.01,WNW,282,2.0,6.0,61,0.00,,,0.00,meteobridge,2013-03-21 18:11:00,
2013-03-21 11:56:00,39.4,24.1,30.01,WNW,283,0.0,2.9,54,0.00,,,0.00,meteobridge,2013-03-21 18:56:00,
2013-03-21 12:11:00,40.8,25.0,30.01,NW,307,2.9,4.0,53,0.00,,,0.00,meteobridge,2013-03-21 19:11:00,
2013-03-21 12:26:00,39.4,24.6,30.01,WNW,284,0.0,4.9,55,0.00,,,0.00,meteobridge,2013-03-21 19:26:00,
2013-03-21 12:41:00,40.5,27.3,30.01,West,280,0.0,0.9,59,0.00,,,0.00,meteobridge,2013-03-21 19:41:00,
2013-03-21 12:56:00,43.0,27.0,30.01,South,191,0.9,2.9,53,0.00,,,0.00,meteobridge,2013-03-21 19:56:00,
2013-03-21 13:41:00,43.0,22.1,30.00,SE,140,2.9,2.9,43,0.00,,,0.00,meteobridge,2013-03-21 20:41:00,
2013-03-21 13:56:00,43.9,20.5,29.99,WNW,284,0.0,6.0,39,0.00,,,0.00,meteobridge,2013-03-21 20:56:00,
2013-03-21 14:11:00,44.4,21.6,29.99,SSW,203,0.0,6.9,40,0.00,,,0.00,meteobridge,2013-03-21 21:11:00,
2013-03-21 14:41:00,42.3,17.2,29.99,SE,139,0.0,6.0,36,0.00,,,0.00,meteobridge,2013-03-21 21:41:00,
2013-03-21 14:56:00,41.9,21.6,30.00,NW,320,4.9,13.0,44,0.00,,,0.00,meteobridge,2013-03-21 21:56:00,
2013-03-21 15:11:00,37.8,25.9,30.01,WNW,302,0.9,6.9,62,0.00,,,0.00,meteobridge,2013-03-21 22:11:00,
2013-03-21 15:26:00,39.2,25.7,29.99,ENE,69,0.0,2.9,58,0.00,,,0.00,meteobridge,2013-03-21 22:26:00,
2013-03-21 15:41:00,41.2,24.8,29.99,West,273,4.0,6.9,52,0.00,,,0.00,meteobridge,2013-03-21 22:41:00,
2013-03-21 15:56:00,42.6,19.4,29.99,WSW,250,0.9,6.9,39,0.00,,,0.00,meteobridge,2013-03-21 22:56:00,
2013-03-21 16:11:00,43.2,19.9,29.99,West,259,0.9,4.0,39,0.00,,,0.00,meteobridge,2013-03-21 23:11:00,
2013-03-21 16:26:00,40.8,23.2,29.99,NNW,340,0.0,2.0,49,0.00,,,0.00,meteobridge,2013-03-21 23:26:00,
2013-03-21 16:41:00,39.6,25.2,30.01,WNW,293,2.9,8.9,56,0.01,,,0.01,meteobridge,2013-03-21 23:41:00,
2013-03-21 16:56:00,36.9,27.3,30.00,West,259,0.0,0.0,68,0.01,,,0.01,meteobridge,2013-03-21 23:56:00,
2013-03-21 17:11:00,37.9,28.0,30.00,WSW,247,0.0,0.9,67,0.01,,,0.01,meteobridge,2013-03-22 00:11:00,
2013-03-21 17:26:00,40.1,26.6,30.00,WNW,293,2.0,4.0,58,0.01,,,0.01,meteobridge,2013-03-22 00:26:00,
2013-03-21 17:41:00,40.6,24.8,30.00,SE,132,0.0,0.9,53,0.00,,,0.01,meteobridge,2013-03-22 00:41:00,
2013-03-21 17:56:00,40.3,24.4,30.00,West,271,0.0,0.9,53,0.00,,,0.01,meteobridge,2013-03-22 00:56:00,
2013-03-21 18:12:00,39.2,23.5,30.00,WNW,298,0.0,0.9,53,0.00,,,0.01,meteobridge,2013-03-22 01:12:00,
2013-03-21 18:27:00,38.5,24.6,30.00,SE,146,0.0,2.9,57,0.00,,,0.01,meteobridge,2013-03-22 01:27:00,
2013-03-21 18:42:00,37.9,24.1,30.01,SSW,205,0.0,4.9,57,0.00,,,0.01,meteobridge,2013-03-22 01:42:00,
2013-03-21 18:57:00,36.9,26.2,30.03,NW,304,2.9,6.0,65,0.00,,,0.01,meteobridge,2013-03-22 01:57:00,
2013-03-21 19:12:00,33.1,28.2,30.03,WNW,287,0.0,0.0,82,0.00,,,0.01,meteobridge,2013-03-22 02:12:00,
2013-03-21 19:27:00,32.5,28.2,30.02,SSE,157,0.0,0.9,84,0.00,,,0.01,meteobridge,2013-03-22 02:27:00,
2013-03-21 19:43:00,31.6,27.9,30.02,SE,141,0.0,0.0,86,0.00,,,0.01,meteobridge,2013-03-22 02:43:00,
2013-03-21 19:58:00,30.9,27.1,30.02,SE,141,0.0,0.0,86,0.00,,,0.01,meteobridge,2013-03-22 02:58:00,
2013-03-21 20:13:00,30.7,27.3,30.03,SE,140,0.0,0.0,87,0.00,,,0.01,meteobridge,2013-03-22 03:13:00,
2013-03-21 20:28:00,30.6,27.5,30.03,SE,140,0.0,0.0,88,0.00,,,0.01,meteobridge,2013-03-22 03:28:00,
2013-03-21 20:43:00,31.3,27.0,30.04,SSE,152,0.0,0.0,84,0.00,,,0.01,meteobridge,2013-03-22 03:43:00,
2013-03-21 20:59:00,32.2,27.0,30.03,SSE,148,0.0,0.0,81,0.00,,,0.01,meteobridge,2013-03-22 03:59:00,
2013-03-21 21:14:00,32.2,27.0,30.03,SSE,148,0.0,0.0,81,0.00,,,0.01,meteobridge,2013-03-22 04:14:00,
2013-03-21 21:29:00,32.0,27.5,30.04,SSE,148,0.0,0.0,83,0.00,,,0.01,meteobridge,2013-03-22 04:29:00,
2013-03-21 21:44:00,32.0,27.1,30.04,SSE,148,0.0,0.0,82,0.00,,,0.01,meteobridge,2013-03-22 04:44:00,
2013-03-21 21:59:00,31.8,26.4,30.04,SSE,147,0.0,0.0,80,0.00,,,0.01,meteobridge,2013-03-22 04:59:00,
2013-03-21 22:15:00,31.8,25.7,30.04,WSW,240,0.0,2.9,78,0.00,,,0.01,meteobridge,2013-03-22 05:15:00,
2013-03-21 22:30:00,31.6,25.9,30.04,SW,215,0.0,0.0,79,0.00,,,0.01,meteobridge,2013-03-22 05:30:00,
2013-03-21 22:45:00,31.3,25.9,30.04,SW,215,0.0,0.0,80,0.00,,,0.01,meteobridge,2013-03-22 05:45:00,
2013-03-21 23:00:00,30.4,25.3,30.04,SW,215,0.0,0.0,81,0.00,,,0.01,meteobridge,2013-03-22 06:00:00,
2013-03-21 23:15:00,29.7,25.7,30.04,SW,215,0.0,0.0,85,0.00,,,0.01,meteobridge,2013-03-22 06:15:00,
2013-03-21 23:31:00,30.0,25.7,30.05,SSE,160,0.0,0.9,84,0.00,,,0.01,meteobridge,2013-03-22 06:31:00,
2013-03-21 23:46:00,30.7,26.2,30.05,East,93,0.0,0.0,83,0.00,,,0.01,meteobridge,2013-03-22 06:46:00,